| time (UTC) | temp F | wind direction | speed MPH | gust MPH | rain 1hr in | rain 24hr in | rain mn in | humidity % | barometer mb |
| 20260902031555 | 69 | 0 | 0.0 | 0.0 | 0.00 | 0.00 | 0.00 | 44 | 1013.8 |
| 20260902030054 | 71 | 0 | 0.0 | 1.0 | 0.00 | 0.00 | 0.00 | 41 | 1013.6 |
| 20260902024601 | 74 | 0 | 0.0 | 3.0 | 0.00 | 0.00 | 0.00 | 40 | 1013.5 |
| 20260902023058 | 75 | 25 | 0.0 | 2.0 | 0.00 | 0.00 | 0.00 | 39 | 1013.3 |
| 20260902021556 | 76 | 360 | 2.0 | 8.0 | 0.00 | 0.00 | 0.00 | 38 | 1013.3 |
| 20260902020058 | 76 | 360 | 2.0 | 6.0 | 0.00 | 0.00 | 0.00 | 37 | 1013.2 |
| 20260902014557 | 77 | 360 | 2.0 | 5.0 | 0.00 | 0.00 | 0.00 | 36 | 1013.0 |
| 20260902013056 | 79 | 263 | 2.0 | 8.0 | 0.00 | 0.00 | 0.00 | 35 | 1012.9 |
| 20260902011556 | 80 | 0 | 3.0 | 11.0 | 0.00 | 0.00 | 0.00 | 34 | 1012.9 |
| 20260902010109 | 80 | 240 | 4.0 | 10.0 | 0.00 | 0.00 | 0.00 | 34 | 1012.9 |
| 20260902004600 | 81 | 296 | 4.0 | 9.0 | 0.00 | 0.00 | 0.00 | 33 | 1012.9 |
| 20260902003103 | 83 | 224 | 3.0 | 9.0 | 0.00 | 0.00 | 0.00 | 32 | 1012.8 |
| 20260902001612 | 82 | 195 | 3.0 | 9.0 | 0.00 | 0.00 | 0.00 | 30 | 1012.8 |
| 20260902000055 | 82 | 239 | 1.0 | 8.0 | 0.00 | 0.00 | 0.00 | 31 | 1012.9 |
| 20260901234551 | 82 | 243 | 2.0 | 10.0 | 0.00 | 0.00 | 0.00 | 32 | 1013.0 |
| 20260901233100 | 82 | 290 | 2.0 | 9.0 | 0.00 | 0.00 | 0.00 | 30 | 1013.1 |
| 20260901231559 | 82 | 227 | 2.0 | 10.0 | 0.00 | 0.00 | 0.00 | 31 | 1013.2 |
| 20260901230104 | 82 | 244 | 2.0 | 12.0 | 0.00 | 0.00 | 0.00 | 32 | 1013.5 |
| 20260901224611 | 82 | 165 | 4.0 | 12.0 | 0.00 | 0.00 | 0.00 | 32 | 1013.5 |
| 20260901223056 | 82 | 228 | 4.0 | 11.0 | 0.00 | 0.00 | 0.00 | 33 | 1013.7 |
| 20260901221601 | 82 | 213 | 4.0 | 12.0 | 0.00 | 0.00 | 0.00 | 33 | 1013.8 |
| 20260901220055 | 82 | 263 | 2.0 | 11.0 | 0.00 | 0.00 | 0.00 | 33 | 1013.9 |
| 20260901214602 | 82 | 230 | 1.0 | 10.0 | 0.00 | 0.00 | 0.00 | 32 | 1014.2 |
| 20260901213116 | 81 | 306 | 3.0 | 10.0 | 0.00 | 0.00 | 0.00 | 33 | 1014.1 |
| 20260901211553 | 80 | 250 | 4.0 | 11.0 | 0.00 | 0.00 | 0.00 | 34 | 1014.3 |
| 20260901210116 | 80 | 295 | 2.0 | 7.0 | 0.00 | 0.00 | 0.00 | 33 | 1014.3 |
| 20260901204555 | 78 | 213 | 4.0 | 9.0 | 0.00 | 0.00 | 0.00 | 35 | 1014.6 |
| 20260901203055 | 78 | 236 | 4.0 | 11.0 | 0.00 | 0.00 | 0.00 | 35 | 1014.8 |
| 20260901201559 | 78 | 265 | 4.0 | 10.0 | 0.00 | 0.00 | 0.00 | 36 | 1014.9 |
| 20260901200111 | 78 | 194 | 5.0 | 10.0 | 0.00 | 0.00 | 0.00 | 38 | 1015.0 |
| 20260901194558 | 78 | 251 | 2.0 | 9.0 | 0.00 | 0.00 | 0.00 | 40 | 1015.2 |
| 20260901193057 | 78 | 344 | 3.0 | 10.0 | 0.00 | 0.00 | 0.00 | 42 | 1015.4 |
| 20260901191602 | 76 | 117 | 4.0 | 10.0 | 0.00 | 0.00 | 0.00 | 39 | 1015.6 |
| 20260901190104 | 76 | 0 | 3.0 | 9.0 | 0.00 | 0.00 | 0.00 | 44 | 1015.6 |